Hlavní strana
METAR-TAF:

METAR-TAF

Letiště :

Sparta Community Airport (Hunter Field)

Sparta, Illinois, Spojené státy americké

zeměpisná šířka: 38-08-56N, zeměpisná délka: 089-41-55W, výška: 164 m

Aktuální stav počasí

Zpráva byla vytvořena před 16 minutami, v 12:37 UTC
Jižní vítr 5 kt
Teplota 7°C
Vlhkost vzduchu 66%
Tlak 1031 hPa
Viditelnost: 16.1 km
Jasno

METAR: KSAR 081237Z AUTO 18005KT 10SM CLR 07/01 A3045 RMK AO2

Čas: 06:53 (12:53 UTC)


TAF: chybějící

Stav a předpovědi počasí z více než 4 000 letišť (zprávy METAR a TAF).

Červené a žluté tečky na mapě představují dostupné meteorologické stanice.

Když kurzor umístíte na tečku, zobrazí se název stanice.

Pak kliknutím zobrazíte stav a předpověď počasí.

Chcete-li změnit mapu, kliknutím na zelené tlačítko se znaménkem +mapu přiblížíte, kliknutím na zelené tlačítko se znaménkem – mapu oddálíte a kliknutím na zelené šipky přejdete na sousední mapy.


METAR-TAF: